DECAYED

FENGYUN 1C DEB, 30319 (Decayed)

Orbit data source: Space-Track

FENGYUN 1C DEB, 30319 was space debris in SSO originally from a launch on Mon, 10 May 1999 UTC launched from the Taiyaun Space Center, China (TSC). Fengyun 1C debris stems from the Chinese weather satellite Fengyun-1C, which was intentionally destroyed by a Chinese anti-satellite missile in 2007. This event dramatically increased the amount of space debris, with thousands of trackable fragments posing hazards to satellites and human spaceflight. The Fengyun 1C debris cloud has become a focal point in discussions about space sustainability and the need for international regulations to prevent the creation of new debris.

Loading next visibility...
Identifier
30319, 1999-025AAG
Orbit
Decayed
Last TLE update
6 months ago
Origin
Manufacturer
Unknown
Mission
Decayed spacecraft
Bus & Motor
Unknown
Mass
Unknown
Launch date (UTC)
1999-05-10 (26 years ago)
Launch vehicle
Unknown
Launch site
Taiyaun Space Center, China (TSC)
Object type
Payload
Rocket body
Debris
Shape & HBR
Unknown
Radar Cross Section
Small (<0.1 m²)

Expand to show TLE details & history

TLE from 6 months ago
0 FENGYUN 1C DEB
1 30319U 99025AAG 25022.03782530  .11055135  00000-0  50552-1 0  9999
2 30319  98.2361  61.6419 0004218   3.4121 356.7171 15.78999752933197
Epoch: 2025-01-22T00:54Z
TLE epoch observation values (Epoch: 2025-01-22T00:54:28.105Z)
Latitude
-0.00009°
Longitude
-73.61064°
Altitude
333.591 km
Speed
7.71 km/s
True Right ascension
04h 06m 34s
True Declination
0° 00' 00"
Sunlit
Object was in full shadow at epoch
Visualization orbit readout
Visualization observer readout
Orbital elements
Apogee altitude
333.029 km
Perigee altitude
327.37 km
Semi-major axis
6,708.337 km
Eccentricity
0.00042
Inclination
98.2361°
RAAN
61.6419°
Arg. of periapsis
3.4121°
True anomaly
Unknown
Mean anomaly
356.7171°
Eccentric anomaly
Unknown
Mean motion
3.95022 °/min
Orbital period
91.13 mins
BSTAR
0.050552
Loading maneuver chart data...
Loading SW <> Apogee altitude chart data...
Loading historical data...
Loading historical data...
Loading historical data...
Loading historical data...
Loading historical data...
Loading historical data...
Loading historical data...

FENGYUN 1C DEB Visibility forecast

Observer location: undefined°, undefined°

Span
Click to sort rows by Start time (UTC) header in descending order
Start Az.
Max El. time (UTC)
Max El. Az.
Max El.
End time (UTC)
End Az.
6 mins2025-07-13 12:17:16.304Z170.565° S2025-07-13 12:20:16.304Z174.259° S41.73°2025-07-13 12:23:16.304Z172.425° S
5 mins2025-07-13 21:49:16.304Z343.992° N2025-07-13 21:52:16.304Z7.508° NNE29.365°2025-07-13 21:54:16.304Z351.952° N
5 mins2025-07-14 03:17:16.304Z19.843° NNE2025-07-14 03:22:16.304Z234.265° WSW34.518°2025-07-14 03:22:16.304Z234.265° WSW
7 mins2025-07-14 11:55:16.304Z159.921° S2025-07-14 11:58:16.304Z152.3° SSE40.816°2025-07-14 12:02:16.304Z354.001° N
|